Weather History for KTOL - June, 2013

Change the Weather History Date:

Saturday, June 8, 2013

  Actual Average Record
Temperature  
Mean Temperature 64 °F 67 °F  
Max Temperature 76 °F 79 °F 98 °F (1933)
Min Temperature 51 °F 56 °F 39 °F (1913)
Degree Days  
Heating Degree Days 1 2  
Month to date heating degree days 29 20  
Since 1 June heating degree days 29 20  
Since 1 July heating degree days 6163 6130  
Cooling Degree Days 0 4  
Month to date cooling degree days 6 29  
Year to date cooling degree days 100 82  
Since 1 June cooling degree days 6 29  
Growing Degree Days 13 (Base 50)    
Moisture  
Dew Point 50 °F    
Average Humidity 65    
Maximum Humidity 89    
Minimum Humidity 41    
Precipitation  
Precipitation 0.00 in 0.13 in 1.89 in (1981)
Month to date precipitation 1.05 0.99  
Year to date precipitation 15.55 14.36  
Snow  
Snow 0.00 in 0.00 in - ()
Month to date snowfall 0.0 0.0  
Since 1 June snowfall 0.0 0.0  
Since 1 July snowfall 22.4 37.6  
Snow Depth 0.00 in    
Sea Level Pressure  
Sea Level Pressure 29.98 in    
Wind  
Wind Speed 3 mph (ESE)    
Max Wind Speed 10 mph    
Max Gust Speed 16 mph    
Visibility 10 miles    
Events      
T = Trace of Precipitation, MM = Missing Value Source: NWS Daily Summary

Daily Weather History Graph

Daily Weather History Graph

Search for Another Location

Airport or City:

Trip Planner

Search our weather history database for the weather conditions in past years. The results will help you decide how hot, cold, wet, or windy it might be!

Date:

Astronomy

Jun. 08, 2013 Rise Set
Actual Time 6:01 AM EDT 9:07 PM EDT
Civil Twilight 5:27 AM EDT 9:41 PM EDT
Nautical Twilight 4:44 AM EDT 10:24 PM EDT
Astronomical Twilight 3:52 AM EDT 11:16 PM EDT
Moon 6:08 AM EDT (6/8) 9:08 PM EDT (6/8)
Length of Visible Light 16h 14m
Length of Day
15h 06m
New Moon, 0% of the Moon is Illuminated
Jun 8
New Moon
Jun 16
First Quarter
Jun 23
Full
Jun 30
Last Quarter
Jul 8
New

Hourly Weather History & Observations

Time (EDT) Temp. Dew Point Humidity Pressure Visibility Wind Dir Wind Speed Gust Speed Precip Events Conditions
12:52 AM 55.0 °F 50.0 °F 83% 29.92 in 10.0 mi Calm Calm - N/A   Scattered Clouds
1:52 AM 54.0 °F 48.9 °F 83% 29.91 in 10.0 mi Calm Calm - N/A   Mostly Cloudy
2:52 AM 53.1 °F 48.9 °F 86% 29.92 in 10.0 mi Calm Calm - N/A   Overcast
3:52 AM 54.0 °F 50.0 °F 86% 29.92 in 10.0 mi West 3.5 mph - N/A   Overcast
4:52 AM 53.1 °F 48.9 °F 86% 29.91 in 10.0 mi Calm Calm - N/A   Overcast
5:52 AM 53.1 °F 48.9 °F 86% 29.94 in 10.0 mi Calm Calm - N/A   Overcast
6:52 AM 52.0 °F 48.0 °F 86% 29.97 in 10.0 mi Calm Calm - N/A   Clear
7:52 AM 57.0 °F 50.0 °F 77% 29.97 in 10.0 mi Calm Calm - N/A   Clear
8:52 AM 61.0 °F 52.0 °F 72% 29.99 in 10.0 mi WSW 4.6 mph - N/A   Clear
9:52 AM 63.0 °F 51.1 °F 65% 30.00 in 10.0 mi SW 3.5 mph - N/A   Clear
10:24 AM 64.4 °F 50.0 °F 59% 30.00 in 10.0 mi West 4.6 mph - N/A   Mostly Cloudy
10:50 AM 66.2 °F 50.0 °F 56% 30.00 in 10.0 mi Variable 3.5 mph - N/A   Scattered Clouds
10:52 AM 66.0 °F 50.0 °F 56% 30.00 in 10.0 mi Calm Calm - N/A   Scattered Clouds
11:52 AM 66.9 °F 50.0 °F 54% 30.01 in 10.0 mi Calm Calm - N/A   Mostly Cloudy
12:52 PM 70.0 °F 48.9 °F 47% 30.01 in 10.0 mi NW 10.4 mph 16.1 mph N/A   Partly Cloudy
1:52 PM 70.0 °F 48.0 °F 46% 29.99 in 10.0 mi Variable 3.5 mph - N/A   Mostly Cloudy
2:52 PM 71.1 °F 48.0 °F 44% 29.99 in 10.0 mi Calm Calm - N/A   Scattered Clouds
3:52 PM 72.0 °F 48.0 °F 43% 29.99 in 10.0 mi NNE 3.5 mph - N/A   Overcast
4:52 PM 73.0 °F 48.0 °F 41% 29.99 in 10.0 mi Calm Calm - N/A   Mostly Cloudy
5:52 PM 73.9 °F 48.9 °F 41% 29.99 in 10.0 mi Calm Calm - N/A   Mostly Cloudy
6:52 PM 73.0 °F 48.9 °F 42% 30.00 in 10.0 mi Calm Calm - N/A   Clear
7:52 PM 70.0 °F 53.1 °F 55% 30.01 in 10.0 mi East 5.8 mph - N/A   Partly Cloudy
8:52 PM 66.0 °F 53.1 °F 63% 30.02 in 10.0 mi East 5.8 mph - N/A   Clear
9:52 PM 64.0 °F 52.0 °F 65% 30.04 in 10.0 mi East 5.8 mph - N/A   Clear
10:52 PM 62.1 °F 52.0 °F 70% 30.06 in 10.0 mi East 5.8 mph - N/A   Scattered Clouds
11:52 PM 61.0 °F 52.0 °F 72% 30.06 in 10.0 mi East 5.8 mph - N/A   Clear